Вернуться в каталог

STARLINK-1564

АктивенСвязьVLEO
NORAD 46058·PAYLOAD·🇺🇸 United States

Запущен Aug 7, 2020 с Cape Canaveral Space Force Station

Loading…

Ближайшие Пролёты (ближайшие 24 часа)

TLE

СвежийSource: CelesTrak SupGP

Эпоха: Sep 14, 2026, 20:39 UTC

1 46058C 20055AH  26257.86090278 -.00021865  00000+0 -70294-3 0  2572
2 46058  53.1569 315.1068 0001048  95.3806 347.6428 15.31721747    15

Отслеживайте STARLINK-1564 в реальном времени с AllMySat

Download on the App Store